FW1828 Weather Reports


time (UTC)temp
F
wind
direction
speed
knots
gust
knots
rain 1hr
in
rain 24hr
in
rain mn
in
humidity
%
barometer
mb
20260510211515 83 286 7.0 12.2 0.00 0.00 0.00 30 1014.9
20260510210011 83 212 6.1 12.2 0.00 0.00 0.00 31 1014.8
20260510204521 83 215 5.2 10.4 0.00 0.00 0.00 32 1014.7
20260510203017 82 257 6.1 11.3 0.00 0.00 0.00 31 1014.8
20260510201516 83 272 5.2 14.8 0.00 0.00 0.00 30 1014.9
20260510200014 82 129 4.3 7.8 0.00 0.00 0.00 31 1014.9
20260510194519 81 336 6.1 10.4 0.00 0.00 0.00 33 1015.1
20260510193013 81 129 3.5 11.3 0.00 0.00 0.00 32 1015.4
20260510191523 82 214 3.5 11.3 0.00 0.00 0.00 37 1015.5
20260510190027 81 194 5.2 10.4 0.00 0.00 0.00 29 1015.6
20260510184510 81 293 1.7 10.4 0.00 0.00 0.00 33 1015.5
20260510183104 81 202 4.3 13.0 0.00 0.00 0.00 32 1015.7
20260510181602 81 236 5.2 9.6 0.00 0.00 0.00 28 1015.9
20260510180058 80 223 3.5 12.2 0.00 0.00 0.00 30 1016.2
20260510174556 80 206 6.1 13.9 0.00 0.00 0.00 30 1016.4
20260510173105 79 223 6.1 12.2 0.00 0.00 0.00 32 1016.4
20260510171547 78 342 1.7 7.0 0.00 0.00 0.00 34 1016.7
20260510170044 79 311 4.3 12.2 0.00 0.00 0.00 36 1016.8
20260510164604 78 243 7.0 12.2 0.00 0.00 0.00 33 1016.7
20260510163046 78 197 4.3 8.7 0.00 0.00 0.00 36 1016.6
20260510161546 78 260 4.3 8.7 0.00 0.00 0.00 35 1016.9
20260510160039 76 119 1.7 7.0 0.00 0.00 0.00 43 1016.9
20260510154538 76 124 1.7 5.2 0.00 0.00 0.00 44 1017.0
20260510153045 75 178 1.7 5.2 0.00 0.00 0.00 48 1017.1
20260510151535 74 135 2.6 5.2 0.00 0.00 0.00 52 1017.2
20260510150029 74 279 1.7 7.8 0.00 0.00 0.00 54 1017.2
20260510144539 72 203 1.7 6.1 0.00 0.00 0.00 52 1017.2
20260510143028 71 178 0.0 4.3 0.00 0.00 0.00 55 1017.3
20260510141524 70 145 2.6 5.2 0.00 0.00 0.00 56 1017.4
20260510140120 69 89 0.9 6.1 0.00 0.00 0.00 64 1017.5
20260510134516 67 260 1.7 3.5 0.00 0.00 0.00 72 1017.5
20260510133004 65 238 0.9 3.5 0.00 0.00 0.00 77 1017.4
20260510131601 62 223 0.9 3.5 0.00 0.00 0.00 82 1017.4
20260510130056 60 113 0.9 2.6 0.00 0.00 0.00 85 1017.2
20260510124553 59 197 0.9 2.6 0.00 0.00 0.00 89 1017.3
20260510123005 56 190 0.9 2.6 0.00 0.00 0.00 92 1017.3
20260510121503 55 117 1.7 3.5 0.00 0.00 0.00 94 1017.1
20260510120100 53 178 0.0 1.7 0.00 0.00 0.00 95 1016.9
20260510114606 51 314 0.0 0.9 0.00 0.00 0.00 95 1016.6
20260510113043 50 269 0.0 0.9 0.00 0.00 0.00 95 1016.4
20260510111540 49 295 0.0 0.9 0.00 0.00 0.00 94 1015.9
20260510110039 48 314 0.0 0.9 0.00 0.00 0.00 94 1015.7
20260510104536 48 135 0.0 1.7 0.00 0.00 0.00 94 1015.8
20260510103045 49 89 0.0 1.7 0.00 0.00 0.00 94 1015.5
20260510101539 49 28 0.0 1.7 0.00 0.00 0.00 94 1015.2
20260510100049 52 281 0.9 6.1 0.00 0.00 0.00 95 1014.9
20260510094544 51 269 4.3 7.0 0.00 0.00 0.00 96 1014.8
20260510093036 49 283 0.0 1.7 0.00 0.00 0.00 95 1014.8
20260510091534 49 321 0.0 1.7 0.00 0.00 0.00 95 1014.6
20260510090035 49 46 0.9 2.6 0.00 0.00 0.00 94 1014.5
20260510084529 50 63 0.0 0.9 0.00 0.00 0.00 95 1014.5
20260510083019 51 245 0.9 1.7 0.00 0.00 0.00 94 1014.2
20260510081518 51 63 0.0 1.7 0.00 0.00 0.00 94 1013.8
20260510080010 52 213 0.0 1.7 0.00 0.00 0.00 94 1013.9
20260510074509 52 46 0.0 1.7 0.00 0.00 0.00 94 1013.7
20260510073020 53 67 0.9 1.7 0.00 0.00 0.00 93 1013.7
20260510071518 53 1 0.0 2.6 0.00 0.00 0.00 94 1013.5
20260510070024 54 199 1.7 2.6 0.00 0.00 0.00 94 1013.5
20260510064523 54 290 0.9 3.5 0.00 0.00 0.00 94 1013.6
20260510063008 55 185 1.7 2.6 0.00 0.00 0.00 94 1013.7
20260510061506 55 214 2.6 4.3 0.00 0.00 0.00 94 1013.7
20260510060006 55 195 1.7 2.6 0.00 0.00 0.00 94 1013.7
20260510054600 56 286 0.9 1.7 0.00 0.00 0.00 94 1013.7
20260510053000 56 63 0.0 1.7 0.00 0.00 0.00 93 1013.9
20260510051603 57 63 0.0 1.7 0.00 0.00 0.00 93 1013.9
20260510050059 58 46 0.9 2.6 0.00 0.00 0.00 93 1014.0
20260510044557 58 331 1.7 2.6 0.00 0.00 0.00 94 1013.9
20260510043103 57 117 0.0 0.9 0.00 0.00 0.00 93 1014.2
20260510041609 58 279 0.9 2.6 0.00 0.00 0.00 93 1014.1
20260510040051 58 269 0.0 0.9 0.00 0.00 0.00 93 1013.9
20260510034551 58 1 0.9 1.7 0.00 0.00 0.00 92 1014.0
20260510033049 59 1 0.0 0.9 0.00 0.00 0.00 91 1014.1
20260510031553 60 46 0.0 1.7 0.00 0.00 0.00 91 1014.1
20260510030051 60 269 0.0 0.9 0.00 0.00 0.00 89 1013.9
20260510024556 61 295 0.0 1.7 0.00 0.00 0.00 89 1013.8
20260510023051 62 206 0.0 1.7 0.00 0.00 0.00 87 1013.7
20260510021552 64 46 0.9 2.6 0.00 0.00 0.00 83 1013.6
20260510020054 64 262 0.9 5.2 0.00 0.00 0.00 82 1013.3
20260510014550 64 216 0.9 3.5 0.00 0.00 0.00 83 1013.1
20260510013104 64 231 0.9 2.6 0.00 0.00 0.00 83 1012.9
20260510011553 64 46 0.9 2.6 0.00 0.00 0.00 84 1012.6
20260510010104 65 117 0.9 2.6 0.00 0.00 0.00 81 1012.3
20260510004558 66 209 1.7 2.6 0.00 0.00 0.00 78 1012.1
20260510003041 67 187 1.7 4.3 0.00 0.00 0.00 76 1011.8
20260510001540 68 178 1.7 5.2 0.00 0.00 0.00 74 1011.5
20260510000042 70 223 0.9 3.5 0.00 0.00 0.00 71 1011.4
20260509234557 70 46 0.9 3.5 0.00 0.00 0.00 70 1011.5
20260509233043 71 202 1.7 4.3 0.00 0.00 0.00 70 1011.3
20260509231543 71 145 1.7 4.3 0.00 0.00 0.00 69 1011.3
20260509230042 71 188 0.9 5.2 0.00 0.00 0.00 68 1011.1
20260509224542 71 193 2.6 6.1 0.00 0.00 0.00 67 1010.9
20260509223033 72 199 2.6 10.4 0.00 0.00 0.00 65 1010.7
20260509221555 74 196 3.5 9.6 0.00 0.00 0.00 62 1010.6
20260509220032 74 207 4.3 9.6 0.00 0.00 0.00 61 1010.6
20260509214535 75 190 4.3 11.3 0.00 0.00 0.00 60 1010.5
20260509213037 75 132 2.6 9.6 0.00 0.00 0.00 59 1010.4
20260509211536 75 198 2.6 11.3 0.00 0.00 0.00 59 1010.4